Orbital elements:
2017 AC64                                                                       
Epoch 2024 Mar. 31.0 TT = JDT 2460400.5                 Alexandersen            
M  21.84243              (2000.0)            P               Q                  
n   0.00149908     Peri.  150.19920     -0.26847967     -0.89939652             
a  75.6113218      Node   312.84076     +0.76435928     +0.01903695             
e   0.4646029      Incl.   28.06481     +0.58623678     -0.43671902             
P 657              H    9.15          G   0.15           U   6                  
Residuals in seconds of arc
160115 T09  0.1+  0.3+    170223 T09  0.4-  0.2+    170304 T09  0.1+  0.1-
160304 T09  0.0   0.1-    170223 T09  0.1-  0.1-    170304 T09  0.1+  0.3-
160304 T09  0.2+  0.0     170223 T09  0.2-  0.2+    170306 T09  0.2+  0.4+
170102 T09  0.1+  0.0     170223 T09  0.3-  0.0     170306 T09  0.2+  0.1+
170102 T09  0.1+  0.0     170223 T09  0.1-  0.0     170306 T09  0.0   0.0
170102 T09  0.1+  0.4+    170225 T09  0.3+  0.7+    170306 T09  0.2+  0.0
170121 T09  0.0   0.0     170225 T09  0.7+  0.1-    170306 T09  0.1-  0.2-
170121 T09  0.2-  0.1-    170225 T09  0.0   0.2-    170306 T09  0.0   0.1-
170121 T09  0.1+  0.0     170225 T09  0.3-  0.1-    170325 T09  0.3+  0.3-
170121 T09  0.3-  0.1-    170225 T09  0.1+  0.1-    170325 T09  0.1+  0.1-
170121 T09  0.1-  0.1-    170225 T09  0.0   0.1+    170325 T09  0.2+  0.1-
170121 T09  0.0   0.1-    170225 T09  0.1-  0.0     170325 T09  0.3-  0.3-
170121 T09  0.2-  0.1+    170225 T09  0.1-  0.1-    170325 T09  0.0   0.0
170123 T09  0.1-  0.2+    170304 T09  0.2+  0.0     170325 T09  0.1-  0.3-
170123 T09  0.2-  0.1+    170304 T09  0.2-  0.1-    170330 T09  0.1+  0.0
170123 T09  0.2-  0.1-    170304 T09  0.1+  0.0     170330 T09  0.5-  0.6-
170123 T09  0.2+  0.0     170304 T09  0.1-  0.0     170330 T09  0.9-  0.5-
170123 T09  0.1-  0.3-    170304 T09  0.2-  0.1+    170330 T09  0.2+  0.1-
170123 T09  0.2+  0.0     170304 T09  0.1-  0.1+    170330 T09  0.2-  0.0
170202 T09  0.0   0.3+    170304 T09  0.1+  0.0     170330 T09  0.1-  0.0
170202 T09  0.2-  0.1-    170304 T09  0.1-  0.1+    180117 T09  0.1+  0.2+
170202 T09  0.1+  0.0     170304 T09  0.1+  0.0     180117 T09  0.0   0.1+
170202 T09  0.3+  0.1+    170304 T09  0.2-  0.1-    180117 T09  0.1-  0.2+
170202 T09  0.0   0.1+    170304 T09  0.2-  0.2+    180117 T09  0.1+  0.0
170223 T09  0.2+  0.4-    170304 T09  0.1+  0.2+    180117 T09  0.2+  0.5+
170223 T09  0.2+  0.1+    170304 T09  0.1+  0.1-    180117 T09  0.2+  0.1-
170223 T09  0.2-  0.0     170304 T09  0.3-  0.1+

Ephemeris:
2017 AC64                a,e,i = 75.61, 0.46, 28                 q = 40.4821
Date    TT    R. A. (2000) Decl.     Delta      r    Elong.  Phase     V
2024 04 08    10 22 07.4 -04 42 05  47.3162 48.0741   138.8     0.8    26.1
...
2024 04 23    10 21 32.0 -04 36 29  47.5074 48.0875   124.7     1.0    26.1
...
2024 05 01    10 21 19.4 -04 33 48  47.6257 48.0947   117.2     1.1    26.1
...
2024 05 07    10 21 13.0 -04 32 00  47.7201 48.1001   111.6     1.1    26.1
2024 05 08    10 21 12.2 -04 31 44  47.7363 48.1010   110.6     1.1    26.1
2024 05 09    10 21 11.5 -04 31 27  47.7525 48.1019   109.7     1.1    26.1
...
2024 05 15    10 21 08.8 -04 29 56  47.8519 48.1073   104.1     1.2    26.1
...
2024 05 23    10 21 09.4 -04 28 16  47.9881 48.1145    96.6     1.2    26.1
...
2024 06 07    10 21 23.8 -04 26 25  48.2474 48.1280    82.6     1.2    26.2

M. P. C. Staff               (C) Copyright 2024 MPC           M.P.E.C. 2024-J164





More information about the Iaude mailing list